sat.trackr.live / text

‹ back to catalog

STARLINK-36909

NORAD 67946 · 2026-037Q

PAYLOAD ACTIVE UNKNOWN

§ Identity

Operator
Country
US
Launch date
2026-02-24
Launch site
AFETR
Launch vehicle
Mass (kg)
RCS (m²)

Purposes: comms

External: N2YO · Heavens-Above · Gunter

§ Orbital elements

Epoch: 2026-05-25T04:30:34.610112Z

Period
94.27 min
Inclination
43.0015°
Eccentricity
0.0001756
Mean motion
15.27594485 rev/d
Perigee alt
481.8 km
Apogee alt
484.2 km
Semi-major
6,861.1 km
B*
5.3622e-4
RAAN
118.3751°
Arg perigee
284.1966°
Mean anomaly
75.8690°
Rev number
1,504

§ Raw data

STARLINK-369091 67946U 26037Q   26145.18790058  .00014529  00000+0  53622-3 0  99972 67946  43.0015 118.3751 0001756 284.1966  75.8690 15.27594485 15043

JSON: /api/v1/satellites/67946 · /tle

For live sub-satellite position, see the globe view (requires WebGL).

§ Visibility from observer

Set your observer location to see the next 7 days of passes ≥ 10°. The values pass through the URL so the page stays shareable.

No JS? Fill the form by hand. The geolocation button needs JavaScript.